Time,TemperatureF,DewpointF,PressureIn,WindDirection,WindDirectionDegrees,WindSpeedMPH,WindSpeedGustMPH,Humidity,HourlyPrecipIn,Conditions,Clouds,dailyrainin,SolarRadiationWatts/m^2,SoftwareType,DateUTC
2013-03-09 00:01:00,44.0,33.0,29.87,WNW,282,25.0,30.0,64,-99.99,,,-99.99,0.000000,,2013-03-09 07:01:00,
2013-03-09 00:11:00,44.0,33.0,29.87,West,279,23.0,30.0,64,-99.99,,,-99.99,0.000000,,2013-03-09 07:11:00,
2013-03-09 00:21:00,44.0,33.0,29.87,West,279,23.0,30.0,64,-99.99,,,-99.99,0.000000,,2013-03-09 07:21:00,
2013-03-09 00:32:00,43.0,33.0,29.87,West,277,25.0,34.0,65,-99.99,,,-99.99,0.000000,,2013-03-09 07:32:00,
2013-03-09 00:41:00,43.0,33.0,29.88,West,274,28.0,34.0,68,-99.99,,,-99.99,0.000000,,2013-03-09 07:41:00,
2013-03-09 00:52:00,42.0,33.0,29.87,West,271,35.0,44.0,70,-99.99,,,-99.99,0.000000,,2013-03-09 07:52:00,
2013-03-09 01:01:00,42.0,33.0,29.87,West,271,35.0,44.0,70,-99.99,,,-99.99,0.000000,,2013-03-09 08:01:00,
2013-03-09 01:11:00,41.0,33.0,29.87,West,274,38.0,48.0,72,-99.99,,,-99.99,0.000000,,2013-03-09 08:11:00,
2013-03-09 01:22:00,41.0,33.0,29.87,West,274,38.0,48.0,72,-99.99,,,-99.99,0.000000,,2013-03-09 08:22:00,
2013-03-09 01:32:00,41.0,33.0,29.87,West,272,37.0,48.0,74,-99.99,,,-99.99,0.000000,,2013-03-09 08:32:00,
2013-03-09 01:41:00,40.0,33.0,29.88,West,270,34.0,42.0,74,-99.99,,,-99.99,0.000000,,2013-03-09 08:41:00,
2013-03-09 01:52:00,40.0,33.0,29.88,West,270,34.0,42.0,74,-99.99,,,-99.99,0.000000,,2013-03-09 08:52:00,
2013-03-09 02:01:00,40.0,32.0,29.87,West,267,33.0,41.0,74,-99.99,,,-99.99,0.000000,,2013-03-09 09:01:00,
2013-03-09 02:12:00,39.0,33.0,29.88,West,269,31.0,38.0,77,-99.99,,,-99.99,0.000000,,2013-03-09 09:12:00,
2013-03-09 02:21:00,39.0,33.0,29.88,West,269,31.0,38.0,77,-99.99,,,-99.99,0.000000,,2013-03-09 09:21:00,
2013-03-09 02:32:00,39.0,33.0,29.88,West,269,31.0,38.0,77,-99.99,,,-99.99,0.000000,,2013-03-09 09:32:00,
2013-03-09 02:42:00,37.0,34.0,29.87,WSW,252,35.0,52.0,89,-99.99,,,-99.99,0.000000,,2013-03-09 09:42:00,
2013-03-09 02:52:00,37.0,34.0,29.87,WSW,252,35.0,52.0,89,-99.99,,,-99.99,0.000000,,2013-03-09 09:52:00,
2013-03-09 03:01:00,37.0,32.0,29.85,WSW,256,43.0,53.0,81,-99.99,,,-99.99,0.000000,,2013-03-09 10:01:00,
2013-03-09 03:11:00,37.0,32.0,29.85,WSW,256,43.0,52.0,82,-99.99,,,-99.99,0.000000,,2013-03-09 10:11:00,
2013-03-09 03:21:00,37.0,32.0,29.85,WSW,256,43.0,52.0,82,-99.99,,,-99.99,0.000000,,2013-03-09 10:21:00,
2013-03-09 03:31:00,36.0,31.0,29.85,WSW,255,43.0,52.0,82,-99.99,,,-99.99,0.000000,,2013-03-09 10:31:00,
2013-03-09 03:42:00,36.0,31.0,29.85,WSW,253,40.0,48.0,82,-99.99,,,-99.99,0.000000,,2013-03-09 10:42:00,
2013-03-09 03:52:00,36.0,31.0,29.85,WSW,253,40.0,48.0,82,-99.99,,,-99.99,0.000000,,2013-03-09 10:52:00,
2013-03-09 04:01:00,35.0,30.0,29.86,West,261,38.0,51.0,81,-99.99,,,-99.99,0.000000,,2013-03-09 11:01:00,
2013-03-09 04:11:00,35.0,29.0,29.86,West,279,37.0,47.0,79,-99.99,,,-99.99,0.000000,,2013-03-09 11:11:00,
2013-03-09 04:21:00,35.0,29.0,29.86,West,279,37.0,47.0,79,-99.99,,,-99.99,0.000000,,2013-03-09 11:21:00,
2013-03-09 04:32:00,35.0,29.0,29.86,West,279,37.0,47.0,79,-99.99,,,-99.99,0.000000,,2013-03-09 11:32:00,
2013-03-09 04:42:00,34.0,28.0,29.86,WNW,282,35.0,41.0,80,-99.99,,,-99.99,0.000000,,2013-03-09 11:42:00,
2013-03-09 04:52:00,33.0,28.0,29.86,WNW,284,34.0,44.0,82,-99.99,,,-99.99,0.000000,,2013-03-09 11:52:00,
2013-03-09 05:01:00,33.0,28.0,29.86,WNW,284,34.0,44.0,82,-99.99,,,-99.99,0.000000,,2013-03-09 12:01:00,
2013-03-09 05:11:00,33.0,28.0,29.86,WNW,284,34.0,44.0,82,-99.99,,,-99.99,0.000000,,2013-03-09 12:11:00,
2013-03-09 05:21:00,33.0,28.0,29.86,WNW,284,34.0,44.0,82,-99.99,,,-99.99,0.000000,,2013-03-09 12:21:00,
2013-03-09 05:32:00,32.0,28.0,29.86,WNW,282,34.0,43.0,83,-99.99,,,-99.99,0.000000,,2013-03-09 12:32:00,
2013-03-09 05:42:00,32.0,28.0,29.86,WNW,283,33.0,40.0,83,-99.99,,,-99.99,0.000000,,2013-03-09 12:42:00,
2013-03-09 05:52:00,32.0,28.0,29.86,WNW,283,33.0,40.0,83,-99.99,,,-99.99,0.000000,,2013-03-09 12:52:00,
2013-03-09 06:02:00,32.0,27.0,29.88,West,280,30.0,36.0,84,-99.99,,,-99.99,0.000000,,2013-03-09 13:02:00,
2013-03-09 06:11:00,31.0,27.0,29.88,West,280,28.0,35.0,84,-99.99,,,-99.99,0.000000,,2013-03-09 13:11:00,
2013-03-09 06:21:00,31.0,27.0,29.88,West,280,28.0,35.0,84,-99.99,,,-99.99,0.000000,,2013-03-09 13:21:00,
2013-03-09 06:32:00,32.0,27.0,29.89,WNW,285,29.0,35.0,79,-99.99,,,-99.99,0.000000,,2013-03-09 13:32:00,
2013-03-09 06:42:00,32.0,27.0,29.89,WNW,285,29.0,35.0,79,-99.99,,,-99.99,0.000000,,2013-03-09 13:42:00,
2013-03-09 06:52:00,32.0,26.0,29.89,West,271,29.0,33.0,79,-99.99,,,-99.99,4.180000,,2013-03-09 13:52:00,
2013-03-09 07:01:00,32.0,26.0,29.89,West,271,29.0,33.0,79,-99.99,,,-99.99,4.180000,,2013-03-09 14:01:00,
2013-03-09 07:11:00,31.0,26.0,29.89,West,277,28.0,33.0,79,-99.99,,,-99.99,36.259998,,2013-03-09 14:11:00,
2013-03-09 07:21:00,31.0,26.0,29.89,West,277,28.0,33.0,79,-99.99,,,-99.99,36.259998,,2013-03-09 14:21:00,
2013-03-09 07:32:00,32.0,26.0,29.89,West,274,27.0,32.0,76,-99.99,,,-99.99,113.669998,,2013-03-09 14:32:00,
2013-03-09 07:42:00,33.0,25.0,29.90,West,273,27.0,33.0,69,-99.99,,,-99.99,165.970001,,2013-03-09 14:42:00,
2013-03-09 07:52:00,33.0,25.0,29.90,West,273,27.0,33.0,69,-99.99,,,-99.99,165.970001,,2013-03-09 14:52:00,
2013-03-09 08:01:00,33.0,25.0,29.90,West,273,27.0,33.0,69,-99.99,,,-99.99,165.970001,,2013-03-09 15:01:00,
2013-03-09 08:11:00,34.0,24.0,29.90,West,277,27.0,32.0,67,-99.99,,,-99.99,273.350006,,2013-03-09 15:11:00,
2013-03-09 08:22:00,34.0,24.0,29.90,West,277,27.0,32.0,67,-99.99,,,-99.99,273.350006,,2013-03-09 15:22:00,
2013-03-09 08:32:00,34.0,24.0,29.90,West,277,27.0,32.0,67,-99.99,,,-99.99,273.350006,,2013-03-09 15:32:00,
2013-03-09 08:42:00,35.0,21.0,29.89,West,266,32.0,42.0,57,-99.99,,,-99.99,379.350006,,2013-03-09 15:42:00,
2013-03-09 08:52:00,35.0,21.0,29.89,West,266,32.0,42.0,57,-99.99,,,-99.99,379.350006,,2013-03-09 15:52:00,
2013-03-09 09:01:00,36.0,21.0,29.89,West,272,34.0,42.0,55,-99.99,,,-99.99,438.619995,,2013-03-09 16:01:00,
2013-03-09 09:11:00,37.0,21.0,29.89,West,269,36.0,46.0,52,-99.99,,,-99.99,594.830017,,2013-03-09 16:11:00,
2013-03-09 09:21:00,37.0,21.0,29.89,West,269,36.0,46.0,52,-99.99,,,-99.99,594.830017,,2013-03-09 16:21:00,
2013-03-09 09:32:00,38.0,20.0,29.89,West,271,38.0,46.0,48,-99.99,,,-99.99,654.099976,,2013-03-09 16:32:00,
2013-03-09 09:42:00,38.0,20.0,29.89,West,271,38.0,48.0,48,-99.99,,,-99.99,635.270020,,2013-03-09 16:42:00,
2013-03-09 09:52:00,38.0,20.0,29.89,West,271,38.0,48.0,48,-99.99,,,-99.99,635.270020,,2013-03-09 16:52:00,
2013-03-09 10:01:00,38.0,20.0,29.89,West,265,35.0,43.0,48,-99.99,,,-99.99,575.299988,,2013-03-09 17:01:00,
2013-03-09 10:11:00,38.0,20.0,29.89,West,265,35.0,43.0,48,-99.99,,,-99.99,575.299988,,2013-03-09 17:11:00,
2013-03-09 10:22:00,38.0,20.0,29.89,West,265,35.0,43.0,48,-99.99,,,-99.99,575.299988,,2013-03-09 17:22:00,
2013-03-09 10:32:00,39.0,18.0,29.88,West,261,37.0,48.0,41,-99.99,,,-99.99,649.219971,,2013-03-09 17:32:00,
2013-03-09 10:42:00,40.0,17.0,29.87,West,260,40.0,50.0,38,-99.99,,,-99.99,731.500000,,2013-03-09 17:42:00,
2013-03-09 10:52:00,40.0,17.0,29.87,West,260,40.0,50.0,38,-99.99,,,-99.99,731.500000,,2013-03-09 17:52:00,
2013-03-09 11:01:00,40.0,17.0,29.87,West,260,40.0,50.0,38,-99.99,,,-99.99,731.500000,,2013-03-09 18:01:00,
2013-03-09 11:11:00,40.0,17.0,29.87,West,260,40.0,50.0,38,-99.99,,,-99.99,731.500000,,2013-03-09 18:11:00,
2013-03-09 12:11:00,42.0,14.0,29.86,West,266,45.0,58.0,31,-99.99,,,-99.99,686.869995,,2013-03-09 19:11:00,
2013-03-09 12:22:00,42.0,14.0,29.86,West,266,45.0,58.0,31,-99.99,,,-99.99,686.869995,,2013-03-09 19:22:00,
2013-03-09 12:32:00,43.0,15.0,29.86,West,268,44.0,53.0,32,-99.99,,,-99.99,481.160004,,2013-03-09 19:32:00,
2013-03-09 12:42:00,41.0,16.0,29.86,West,267,42.0,55.0,34,-99.99,,,-99.99,372.380005,,2013-03-09 19:42:00,
2013-03-09 12:52:00,41.0,16.0,29.86,West,267,42.0,55.0,34,-99.99,,,-99.99,372.380005,,2013-03-09 19:52:00,
2013-03-09 13:01:00,41.0,16.0,29.86,West,267,42.0,55.0,34,-99.99,,,-99.99,372.380005,,2013-03-09 20:01:00,
2013-03-09 13:11:00,41.0,17.0,29.87,West,272,39.0,52.0,38,-99.99,,,-99.99,262.890015,,2013-03-09 20:11:00,
2013-03-09 13:22:00,41.0,17.0,29.87,West,272,39.0,52.0,38,-99.99,,,-99.99,262.890015,,2013-03-09 20:22:00,
2013-03-09 13:32:00,41.0,17.0,29.87,West,272,39.0,52.0,38,-99.99,,,-99.99,262.890015,,2013-03-09 20:32:00,
2013-03-09 13:42:00,41.0,18.0,29.87,West,275,38.0,50.0,40,-99.99,,,-99.99,226.630005,,2013-03-09 20:42:00,
2013-03-09 13:52:00,41.0,18.0,29.87,West,275,38.0,50.0,40,-99.99,,,-99.99,226.630005,,2013-03-09 20:52:00,
2013-03-09 14:02:00,41.0,18.0,29.87,West,275,38.0,50.0,40,-99.99,,,-99.99,226.630005,,2013-03-09 21:02:00,
2013-03-09 14:12:00,41.0,19.0,29.83,West,263,46.0,54.0,40,-99.99,,,-99.99,270.570007,,2013-03-09 21:12:00,
2013-03-09 14:22:00,41.0,19.0,29.83,West,263,46.0,54.0,40,-99.99,,,-99.99,270.570007,,2013-03-09 21:22:00,
2013-03-09 14:32:00,41.0,19.0,29.83,West,263,46.0,54.0,40,-99.99,,,-99.99,270.570007,,2013-03-09 21:32:00,
2013-03-09 14:42:00,41.0,20.0,29.83,West,262,42.0,51.0,42,-99.99,,,-99.99,240.580002,,2013-03-09 21:42:00,
2013-03-09 14:52:00,41.0,20.0,29.83,West,262,42.0,51.0,42,-99.99,,,-99.99,240.580002,,2013-03-09 21:52:00,
2013-03-09 15:01:00,41.0,20.0,29.84,West,267,41.0,52.0,42,-99.99,,,-99.99,238.490005,,2013-03-09 22:01:00,
2013-03-09 15:11:00,41.0,19.0,29.84,West,262,43.0,55.0,40,-99.99,,,-99.99,184.100006,,2013-03-09 22:11:00,
2013-03-09 15:21:00,41.0,19.0,29.84,West,262,43.0,55.0,40,-99.99,,,-99.99,184.100006,,2013-03-09 22:21:00,
2013-03-09 15:32:00,40.0,19.0,29.83,West,260,46.0,56.0,42,-99.99,,,-99.99,128.309998,,2013-03-09 22:32:00,
2013-03-09 15:42:00,40.0,19.0,29.84,West,266,43.0,54.0,42,-99.99,,,-99.99,278.239990,,2013-03-09 22:42:00,
2013-03-09 15:52:00,40.0,19.0,29.84,West,266,43.0,54.0,42,-99.99,,,-99.99,278.239990,,2013-03-09 22:52:00,
2013-03-09 16:01:00,42.0,19.0,29.82,West,262,48.0,58.0,39,-99.99,,,-99.99,552.989990,,2013-03-09 23:01:00,
2013-03-09 16:11:00,41.0,20.0,29.83,West,262,48.0,57.0,41,-99.99,,,-99.99,270.570007,,2013-03-09 23:11:00,
2013-03-09 16:21:00,41.0,20.0,29.83,West,262,48.0,57.0,41,-99.99,,,-99.99,270.570007,,2013-03-09 23:21:00,
2013-03-09 16:32:00,42.0,20.0,29.82,West,261,49.0,58.0,40,-99.99,,,-99.99,494.410004,,2013-03-09 23:32:00,
2013-03-09 16:42:00,41.0,20.0,29.81,West,260,52.0,61.0,42,-99.99,,,-99.99,232.210007,,2013-03-09 23:42:00,
2013-03-09 16:52:00,41.0,20.0,29.81,West,260,52.0,61.0,42,-99.99,,,-99.99,232.210007,,2013-03-09 23:52:00,
2013-03-09 17:01:00,41.0,20.0,29.81,West,260,52.0,61.0,42,-99.99,,,-99.99,232.210007,,2013-03-10 00:01:00,
2013-03-09 17:11:00,41.0,20.0,29.81,West,260,52.0,61.0,42,-99.99,,,-99.99,232.210007,,2013-03-10 00:11:00,
2013-03-09 17:32:00,40.0,20.0,29.81,West,263,51.0,64.0,45,-99.99,,,-99.99,66.940002,,2013-03-10 00:32:00,
2013-03-09 17:42:00,39.0,21.0,29.83,West,265,46.0,56.0,47,-99.99,,,-99.99,31.379999,,2013-03-10 00:42:00,
2013-03-09 17:52:00,39.0,21.0,29.83,West,265,46.0,56.0,47,-99.99,,,-99.99,31.379999,,2013-03-10 00:52:00,
2013-03-09 18:01:00,40.0,22.0,29.84,West,263,45.0,53.0,49,-99.99,,,-99.99,107.389999,,2013-03-10 01:01:00,
2013-03-09 18:11:00,40.0,22.0,29.84,West,263,45.0,53.0,49,-99.99,,,-99.99,107.389999,,2013-03-10 01:11:00,
2013-03-09 18:21:00,40.0,22.0,29.84,West,263,45.0,53.0,49,-99.99,,,-99.99,107.389999,,2013-03-10 01:21:00,
2013-03-09 18:31:00,39.0,23.0,29.87,West,260,42.0,50.0,53,-99.99,,,-99.99,23.010000,,2013-03-10 01:31:00,
2013-03-09 18:41:00,38.0,24.0,29.88,West,259,40.0,47.0,56,-99.99,,,-99.99,6.970000,,2013-03-10 01:41:00,
2013-03-09 18:52:00,38.0,24.0,29.88,West,259,40.0,47.0,56,-99.99,,,-99.99,6.970000,,2013-03-10 01:52:00,
2013-03-09 19:01:00,37.0,23.0,29.89,West,260,38.0,45.0,56,-99.99,,,-99.99,0.700000,,2013-03-10 02:01:00,
2013-03-09 19:11:00,37.0,23.0,29.89,West,259,40.0,52.0,56,-99.99,,,-99.99,0.000000,,2013-03-10 02:11:00,
2013-03-09 19:22:00,37.0,23.0,29.89,West,259,40.0,52.0,56,-99.99,,,-99.99,0.000000,,2013-03-10 02:22:00,
2013-03-09 19:32:00,37.0,24.0,29.89,West,260,41.0,50.0,59,-99.99,,,-99.99,0.000000,,2013-03-10 02:32:00,
2013-03-09 19:42:00,37.0,25.0,29.91,West,266,37.0,44.0,61,-99.99,,,-99.99,0.000000,,2013-03-10 02:42:00,
2013-03-09 19:52:00,37.0,25.0,29.91,West,266,37.0,44.0,61,-99.99,,,-99.99,0.000000,,2013-03-10 02:52:00,
2013-03-09 20:01:00,37.0,25.0,29.92,West,264,36.0,43.0,62,-99.99,,,-99.99,0.000000,,2013-03-10 03:01:00,
2013-03-09 20:11:00,37.0,26.0,29.93,West,261,35.0,43.0,65,-99.99,,,-99.99,0.000000,,2013-03-10 03:11:00,
2013-03-09 20:22:00,37.0,26.0,29.93,West,261,35.0,43.0,65,-99.99,,,-99.99,0.000000,,2013-03-10 03:22:00,
2013-03-09 20:32:00,36.0,26.0,29.95,West,261,29.0,38.0,67,-99.99,,,-99.99,0.000000,,2013-03-10 03:32:00,
2013-03-09 20:42:00,36.0,26.0,29.97,West,260,22.0,32.0,68,-99.99,,,-99.99,0.000000,,2013-03-10 03:42:00,
2013-03-09 20:52:00,36.0,26.0,29.97,West,260,22.0,32.0,68,-99.99,,,-99.99,0.000000,,2013-03-10 03:52:00,
2013-03-09 21:00:00,33.0,26.0,29.98,West,269,16.0,19.0,74,-99.99,,,-99.99,0.000000,,2013-03-10 04:00:00,
2013-03-09 21:01:00,35.0,26.0,29.98,West,261,18.0,22.0,70,-99.99,,,-99.99,0.000000,,2013-03-10 04:01:00,
2013-03-09 21:11:00,35.0,26.0,29.98,West,268,17.0,23.0,71,-99.99,,,-99.99,0.000000,,2013-03-10 04:11:00,
2013-03-09 21:21:00,35.0,26.0,29.98,West,268,17.0,23.0,71,-99.99,,,-99.99,0.000000,,2013-03-10 04:21:00,
2013-03-09 21:31:00,33.0,26.0,29.98,West,269,16.0,19.0,74,-99.99,,,-99.99,0.000000,,2013-03-10 04:31:00,
2013-03-09 21:42:00,33.0,26.0,29.98,West,269,16.0,19.0,74,-99.99,,,-99.99,0.000000,,2013-03-10 04:42:00,
2013-03-09 21:52:00,33.0,26.0,29.98,West,269,16.0,19.0,74,-99.99,,,-99.99,0.000000,,2013-03-10 04:52:00,